Regional Weather Roundup
Issued by NWS

Home | Current Version | Previous Version | Graphics & Text | Print | Product List | Glossary On
Versions: 1 2 3 4 5 6 7 8 9 10 11 12 13 14 15 16 17 18 19 20 21 22 23 24 25 26 27 28 29 30 31 32 33 34 35 36 37 38 39 40 41 42 43 44 45 46 47 48 49 50
000
ASUS45 KTFX 112004
RWRMT
MONTANA HOURLY WEATHER ROUNDUP
NATIONAL WEATHER SERVICE GREAT FALLS MT
204 PM MDT FRI JUL 11 2014

NOTE: "FAIR" INDICATES FEW OR NO CLOUDS BELOW 12000 FEET WITH NO
SIGNIFICANT WEATHER AND/OR OBSTRUCTIONS TO VISIBILITY.

* THESE STATIONS ARE NOT UNDER NWS QUALITY CONTROL. THEY DO NOT
   REPORT WEATHER SUCH AS PRECIPITATION OR FOG.

MTZ001>007-043-112100-
WEST OF THE DIVIDE
CITY           SKY/WX    TMP DP  RH WIND       PRES   REMARKS
KALISPELL      SUNNY     79  52  39 CALM      30.07F
MISSOULA       SUNNY     84  46  26 VRB6      30.04F
BUTTE          SUNNY     79  46  31 SE9       30.16F
MULLAN PASS    SUNNY     70  39  32 VRB5      30.21F
* ESSEX        N/A       76  45  33 E4         N/A
* LINCOLN      N/A       69  51  53 NE8G19     N/A
* LOOKOUT PASS N/A       76  39  26 NW9G17     N/A
* POLSON       N/A       84  53  34 NW3G9      N/A
* RONAN APT    SUNNY     79  54  42 N/A        N/A
* SEELEY LAKE  N/A       77  50  39 S8G17      N/A
* THOMP F APT  SUNNY     79  50  36 S3G14      N/A
* YAAK HILL    N/A       87  51  29 W2         N/A
$$

MTZ008-052>055-112100-
SOUTHWEST MONTANA
CITY           SKY/WX    TMP DP  RH WIND       PRES   REMARKS
BOZEMAN        SUNNY     79  52  39 N5        30.12F
DILLON         SUNNY     82  50  33 N9        30.11F
W YELLOWSTONE  SUNNY     79  45  30 SW10G18   30.21F
* THREE FORKS  SUNNY     79  66  65 N/A        N/A
* BOULDER HILL N/A       66  49  54 N12        N/A
* MONIDA PASS  N/A       77  48  36 E4G14      N/A
* RAYNOLDS PAS N/A       77  27  16 NE5        N/A
* WHITEHALL    N/A       81  51  35 E7G17      N/A
* WISE RIVER   N/A       79  41  26 SE13G18    N/A
$$

MTZ009>010-012-014-046-048-049-054-112100-
EAST SLOPES AND CENTRAL MONTANA
CITY           SKY/WX    TMP DP  RH WIND       PRES   REMARKS
CUT BANK       SUNNY     72  48  43 VRB5      30.19F
GREAT FALLS    PTSUNNY   70  50  49 VRB3      30.17F
HELENA         SUNNY     75  52  45 VRB6      30.13F
MALMSTROM AFB  PTSUNNY   68  52  57 VRB3      30.19R
* CONRAD       SUNNY     70  59  68 N/A        N/A
* DEARBORN     N/A       70  49  47 E1G12      N/A
* MONARCH      N/A       59  46  62 SW1        N/A
* PENDROY      N/A       68  50  53 SE9G14     N/A
* ROGERS PASS  N/A       64  47  54 SW3G8      N/A
* SAINT MARY   N/A       73  49  43 E5G14      N/A
* SWEET GRASS  N/A       65  49  56 NE8        N/A
$$

MTZ011-013-016-021-035-040-045-047-050-051-112100-
NORTH CENTRAL MONTANA
CITY           SKY/WX    TMP DP  RH WIND       PRES   REMARKS
HAVRE          SUNNY     73  52  48 SE7       30.15F
* CHESTER      N/A       72  48  43 NW3G8      N/A
* DENTON       N/A       77  51  40 NE6        N/A
* GEYSER       N/A       71  53  53 N/A        N/A
* JUDITH GAP   N/A       74  51  45 SE8        N/A
* LOMA         N/A       72  52  49 VRB8G15    N/A
$$

MTZ017>020-022>027-061-062-112100-
NORTHEAST MONTANA
CITY           SKY/WX    TMP DP  RH WIND       PRES   REMARKS
GLASGOW        PTSUNNY   75  54  48 NW14G28   30.12S
GLENDIVE       PTCLDY    79  52  39 NW12G22   30.11S
JORDAN         PTCLDY    75  52  45 N14       30.14R
SIDNEY         SUNNY     79  54  42 N13       30.11R
WOLF POINT     PTCLDY    81  52  37 N9G17     30.10S
* BEAVER HILL  N/A       75  55  50 NW12G18    N/A
* CIRCLE       N/A       75  57  54 NW3G11     N/A
* LINDSAY DVD  N/A       72  55  55 NW12G17    N/A
* NAVAJO       N/A       72  50  46 N16G23     N/A
$$

MTZ028>042-056>058-112100-
SOUTHCENTRAL AND SOUTHEAST MONTANA
CITY           SKY/WX    TMP DP  RH WIND       PRES   REMARKS
BAKER          PTCLDY    84  52  33 NE12      30.11R
BILLINGS       PTSUNNY   79  54  42 E9        30.12F
LIVINGSTON     PTCLDY    79  54  42 E16G24    30.15F
MILES CITY     PTCLDY    84  52  33 E10       30.08F
* LAUREL APT   PTSUNNY   77  52  42 NE8        N/A
* ROUNDUP APT  PTCLDY    82  45  27 NE13G18    N/A
* ALZADA       N/A       82  55  40 NE10G18    N/A   HI  81
* HYSHAM       N/A       81  46  29 E9G19      N/A
* LAME DEER    N/A       76  51  42 NE8G14     N/A
* REED POINT   N/A       79  58  49 NE2G10     N/A
* ROSCOE HILL  N/A       67  52  59 N6         N/A
$$

REGIONAL REPORTS...DAKOTAS
CITY           SKY/WX    TMP DP  RH WIND       PRES   REMARKS
WILLISTON      SUNNY     81  52  37 NW10      30.09R
DICKINSON      PTCLDY    81  55  41 NE9       30.06F HI  81
CROSBY         SUNNY     72  55  55 NW17G24   30.08R
WATFORD CITY   SUNNY     75  55  50 NW12      30.07R
BISMARCK       PTSUNNY   82  52  35 N9        30.03F
GRAND FORKS    PTCLDY    84  55  37 NW13G20   29.91R
FARGO          SUNNY     88  66  48 NW8       29.91R HI  90
BUFFALO SD     PTCLDY    82  55  40 E16       30.02S HI  81
RAPID CITY     PTCLDY    84  66  55 N16       30.05S HI  86
$$

REGIONAL REPORTS...WYOMING/IDAHO/WASHINGTON
CITY           SKY/WX    TMP DP  RH WIND       PRES   REMARKS
GILLETTE       CLOUDY    82  63  53 NE13      30.08F HI  83
SHERIDAN       PTSUNNY   84  59  43 N13       30.10F HI  84
CODY           CLOUDY   N/A N/A N/A N12G20    30.14F
YELLOWSTONE LA PTCLDY    70  46  42 CALM      30.32S
SALMON         SUNNY     88  43  21 NW5       29.97F
MULLAN PASS    SUNNY     70  39  32 VRB5      30.21S
SAND POINT     SUNNY     82  50  33 NE3       30.00S
SPOKANE        SUNNY     88  45  22 VRB7      29.98F

$$



USA.gov is the U.S. government's official web portal to all federal, state and local government web resources and services.